SVR2969 UUDD-UTDK

Flight info

Callsign SVR2969
Flight time 4h 1m
Altitude 33000
Route K0826F330 TOGMO4S TOGMO M56 DENUD M161 GERLI/K0826F350 M161 ODIVA Z407 JD VOBIZ1N
Aircraft A321/M-SDE3FGHIRWY/LB1

Departure

Time 2026-04-17 05:01
Airport Domodedovo International Airport (UUDD)

Arrival

Time 2026-04-17 09:02
Airport Kulob International Airport (UTDK)
Time Latitude Longitude Altitude Speed Heading
2026-04-17 04:44 55.41826 37.88121 584 ft 0 kts 56°
2026-04-17 04:57 55.41832 37.88136 583 ft 6 kts 56°
2026-04-17 04:57 55.41886 37.88110 585 ft 8 kts 291°
2026-04-17 04:57 55.41870 37.88043 587 ft 5 kts 240°
2026-04-17 04:57 55.41853 37.87994 587 ft 7 kts 236°
2026-04-17 04:58 55.41866 37.87872 588 ft 16 kts 323°
2026-04-17 04:58 55.41972 37.87743 594 ft 18 kts 326°
2026-04-17 04:58 55.42069 37.87627 597 ft 15 kts 326°
2026-04-17 04:58 55.42143 37.87539 599 ft 12 kts 326°
2026-04-17 04:59 55.42176 37.87428 598 ft 10 kts 256°
2026-04-17 04:59 55.42131 37.87303 596 ft 17 kts 235°
2026-04-17 04:59 55.42070 37.87264 595 ft 7 kts 143°
2026-04-17 04:59 55.42016 37.87329 596 ft 18 kts 146°
2026-04-17 05:00 55.41733 37.87665 589 ft 81 kts 145°
2026-04-17 05:00 55.41118 37.88405 581 ft 131 kts 146°
2026-04-17 05:00 55.40252 37.89454 585 ft 168 kts 145°
2026-04-17 05:00 55.39262 37.90629 1024 ft 171 kts 146°
2026-04-17 05:01 55.38241 37.91687 1611 ft 171 kts 158°
2026-04-17 05:01 55.37114 37.92295 2193 ft 168 kts 163°
2026-04-17 05:01 55.35986 37.92896 2533 ft 177 kts 161°
2026-04-17 05:01 55.34747 37.93609 2711 ft 197 kts 162°
2026-04-17 05:02 55.33366 37.94404 2877 ft 221 kts 163°
2026-04-17 05:02 55.31851 37.95198 3253 ft 230 kts 174°
2026-04-17 05:02 55.30260 37.95041 3803 ft 235 kts 198°
2026-04-17 05:02 55.28773 37.93675 4203 ft 247 kts 214°
2026-04-17 05:03 55.27326 37.91993 4831 ft 251 kts 214°
2026-04-17 05:03 55.25859 37.90297 5510 ft 254 kts 214°
2026-04-17 05:03 55.24382 37.88596 6196 ft 255 kts 214°
2026-04-17 05:03 55.22889 37.86890 6867 ft 257 kts 214°
2026-04-17 05:04 55.21381 37.85170 7507 ft 260 kts 214°
2026-04-17 05:04 55.19856 37.83434 8134 ft 263 kts 214°
2026-04-17 05:04 55.18317 37.81685 8713 ft 265 kts 213°
2026-04-17 05:04 55.16715 37.80025 9302 ft 270 kts 205°
2026-04-17 05:05 55.14914 37.79049 9887 ft 273 kts 194°
2026-04-17 05:05 55.13043 37.78274 10280 ft 284 kts 195°
2026-04-17 05:05 55.11079 37.77446 10605 ft 295 kts 195°
2026-04-17 05:05 55.09070 37.76595 11125 ft 299 kts 195°
2026-04-17 05:06 55.07042 37.75738 11689 ft 301 kts 195°
2026-04-17 05:06 55.05001 37.74877 12277 ft 302 kts 194°
2026-04-17 05:06 55.02950 37.74016 12818 ft 305 kts 195°
2026-04-17 05:06 55.00865 37.73303 13348 ft 308 kts 186°
2026-04-17 05:07 54.98741 37.73381 13846 ft 312 kts 174°
2026-04-17 05:07 54.96587 37.74314 14346 ft 317 kts 166°
2026-04-17 05:07 54.94465 37.75420 14848 ft 319 kts 166°
2026-04-17 05:07 54.92328 37.76526 15356 ft 322 kts 166°
2026-04-17 05:08 54.90169 37.77639 15838 ft 324 kts 166°
2026-04-17 05:08 54.87998 37.78753 16314 ft 327 kts 167°
2026-04-17 05:08 54.85851 37.80124 16769 ft 333 kts 155°
2026-04-17 05:08 54.83960 37.82502 17206 ft 342 kts 138°
2026-04-17 05:09 54.82527 37.85840 17629 ft 351 kts 120°
2026-04-17 05:09 54.81730 37.89887 18051 ft 361 kts 102°
2026-04-17 05:09 54.81417 37.94165 18468 ft 364 kts 99°
2026-04-17 05:09 54.81114 37.98544 18885 ft 367 kts 100°
2026-04-17 05:10 54.80805 38.02945 19312 ft 369 kts 100°
2026-04-17 05:10 54.80490 38.07371 19732 ft 371 kts 100°
2026-04-17 05:10 54.80168 38.11820 20138 ft 373 kts 101°
2026-04-17 05:10 54.79840 38.16283 20532 ft 375 kts 101°
2026-04-17 05:11 54.79506 38.20837 20930 ft 377 kts 101°
2026-04-17 05:11 54.79174 38.25359 21307 ft 379 kts 101°
2026-04-17 05:11 54.78845 38.29841 21678 ft 381 kts 101°
2026-04-17 05:11 54.78509 38.34403 22036 ft 383 kts 101°
2026-04-17 05:12 54.78168 38.38985 22387 ft 385 kts 101°
2026-04-17 05:12 54.77822 38.43591 22731 ft 386 kts 101°
2026-04-17 05:12 54.77471 38.48214 23060 ft 388 kts 101°
2026-04-17 05:12 54.77119 38.52869 23395 ft 390 kts 102°
2026-04-17 05:13 54.76528 38.57419 23690 ft 386 kts 114°
2026-04-17 05:13 54.75412 38.61604 23978 ft 381 kts 126°
2026-04-17 05:13 54.73844 38.65268 24172 ft 379 kts 137°
2026-04-17 05:13 54.71876 38.68279 24294 ft 378 kts 149°
2026-04-17 05:14 54.69630 38.70671 24427 ft 381 kts 153°
2026-04-17 05:14 54.67332 38.73027 24554 ft 387 kts 153°
2026-04-17 05:14 54.65004 38.75426 24682 ft 393 kts 153°
2026-04-17 05:14 54.63414 38.77076 24774 ft 396 kts 153°
2026-04-17 05:15 54.61038 38.79548 24895 ft 402 kts 152°
2026-04-17 05:15 54.58624 38.82066 25023 ft 408 kts 152°
2026-04-17 05:15 54.56214 38.84580 25147 ft 413 kts 152°
2026-04-17 05:15 54.53739 38.87155 25274 ft 418 kts 152°
2026-04-17 05:16 54.51239 38.89752 25458 ft 422 kts 152°
2026-04-17 05:16 54.48720 38.92359 25680 ft 424 kts 152°
2026-04-17 05:16 54.46183 38.94976 25922 ft 426 kts 152°
2026-04-17 05:16 54.43638 38.97597 26164 ft 428 kts 152°
2026-04-17 05:17 54.41222 39.00622 26395 ft 433 kts 142°
2026-04-17 05:17 54.39121 39.04377 26626 ft 440 kts 131°
2026-04-17 05:17 54.37425 39.08772 26847 ft 446 kts 121°
2026-04-17 05:17 54.36156 39.13662 27057 ft 451 kts 115°
2026-04-17 05:18 54.34972 39.18653 27282 ft 452 kts 115°
2026-04-17 05:18 54.33780 39.23642 27505 ft 453 kts 116°
2026-04-17 05:18 54.32576 39.28642 27712 ft 455 kts 116°
2026-04-17 05:18 54.31363 39.33650 27927 ft 456 kts 116°
2026-04-17 05:19 54.30141 39.38678 28114 ft 457 kts 116°
2026-04-17 05:19 54.28913 39.43702 28304 ft 458 kts 116°
2026-04-17 05:19 54.27678 39.48746 28473 ft 460 kts 116°
2026-04-17 05:19 54.26441 39.53789 28644 ft 461 kts 116°
2026-04-17 05:20 54.25201 39.58854 28806 ft 462 kts 116°
2026-04-17 05:20 54.23960 39.63919 28985 ft 462 kts 116°
2026-04-17 05:20 54.22716 39.68983 29199 ft 461 kts 116°
2026-04-17 05:20 54.21472 39.74031 29414 ft 461 kts 116°
2026-04-17 05:21 54.20225 39.79071 29625 ft 460 kts 116°
2026-04-17 05:21 54.18978 39.84101 29817 ft 460 kts 116°
2026-04-17 05:21 54.17729 39.89128 30021 ft 460 kts 116°
2026-04-17 05:21 54.16478 39.94152 30198 ft 460 kts 116°
2026-04-17 05:22 54.15228 39.99166 30392 ft 460 kts 116°
2026-04-17 05:22 54.13973 40.04182 30570 ft 459 kts 116°
2026-04-17 05:22 54.12720 40.09185 30757 ft 459 kts 116°
2026-04-17 05:22 54.11562 40.14183 30925 ft 461 kts 110°
2026-04-17 05:23 54.10649 40.19421 31110 ft 461 kts 109°
2026-04-17 05:23 54.09746 40.24665 31285 ft 461 kts 109°
2026-04-17 05:23 54.08838 40.29895 31472 ft 461 kts 109°
2026-04-17 05:23 54.07922 40.35127 31660 ft 461 kts 109°
2026-04-17 05:24 54.07007 40.40351 31859 ft 460 kts 109°
2026-04-17 05:24 54.06095 40.45573 32034 ft 460 kts 109°
2026-04-17 05:24 54.05182 40.50796 32221 ft 460 kts 109°
2026-04-17 05:24 54.04269 40.56002 32397 ft 459 kts 109°
2026-04-17 05:25 54.03353 40.61203 32571 ft 459 kts 109°
2026-04-17 05:25 54.02435 40.66399 32742 ft 459 kts 109°
2026-04-17 05:25 54.01518 40.71593 32919 ft 458 kts 109°
2026-04-17 05:25 54.00598 40.76783 33072 ft 458 kts 109°
2026-04-17 05:26 53.98759 40.87079 33110 ft 454 kts 109°
2026-04-17 05:26 53.96911 40.97311 33109 ft 452 kts 110°
2026-04-17 05:27 53.95074 41.07520 33109 ft 452 kts 109°
2026-04-17 05:27 53.93389 41.17792 33110 ft 452 kts 108°
2026-04-17 05:28 53.91758 41.28076 33110 ft 451 kts 108°
2026-04-17 05:28 53.90080 41.38328 33112 ft 451 kts 109°
2026-04-17 05:29 53.88367 41.48556 33114 ft 450 kts 109°
2026-04-17 05:29 53.86649 41.58765 33116 ft 450 kts 109°
2026-04-17 05:30 53.84924 41.68950 33118 ft 450 kts 109°
2026-04-17 05:30 53.83198 41.79126 33123 ft 450 kts 109°
2026-04-17 05:31 53.81462 41.89282 33124 ft 449 kts 109°
2026-04-17 05:31 53.79717 41.99424 33120 ft 448 kts 109°
2026-04-17 05:32 53.77974 42.09470 33117 ft 448 kts 109°
2026-04-17 05:32 53.76211 42.19570 33115 ft 448 kts 109°
2026-04-17 05:33 53.74447 42.29656 33115 ft 448 kts 109°
2026-04-17 05:33 53.72675 42.39742 33116 ft 448 kts 109°
2026-04-17 05:34 53.70893 42.49811 33129 ft 448 kts 110°
2026-04-17 05:34 53.69093 42.59874 33136 ft 448 kts 110°
2026-04-17 05:35 53.67296 42.69926 33146 ft 448 kts 109°
2026-04-17 05:35 53.65655 42.80079 33150 ft 449 kts 107°
2026-04-17 05:36 53.64122 42.90289 33161 ft 449 kts 107°
2026-04-17 05:36 53.62559 43.00470 33163 ft 449 kts 107°
2026-04-17 05:37 53.60939 43.10629 33158 ft 449 kts 108°
2026-04-17 05:37 53.59294 43.20764 33169 ft 449 kts 108°
2026-04-17 05:38 53.57653 43.30911 33169 ft 449 kts 108°
2026-04-17 05:38 53.56016 43.41041 33173 ft 449 kts 108°
2026-04-17 05:39 53.54365 43.51171 33163 ft 449 kts 108°
2026-04-17 05:39 53.52701 43.61297 33163 ft 449 kts 108°
2026-04-17 05:40 53.51030 43.71410 33165 ft 449 kts 108°
2026-04-17 05:40 53.49341 43.81526 33176 ft 450 kts 108°
2026-04-17 05:41 53.47658 43.91567 33169 ft 450 kts 108°
2026-04-17 05:41 53.45962 44.01679 33172 ft 450 kts 108°
2026-04-17 05:42 53.44258 44.11773 33174 ft 450 kts 108°
2026-04-17 05:42 53.42545 44.21863 33177 ft 450 kts 108°
2026-04-17 05:43 53.40810 44.31960 33176 ft 450 kts 108°
2026-04-17 05:43 53.39071 44.42042 33182 ft 450 kts 108°
2026-04-17 05:44 53.37331 44.52117 33183 ft 451 kts 108°
2026-04-17 05:44 53.35578 44.62195 33188 ft 451 kts 108°
2026-04-17 05:45 53.33823 44.72262 33192 ft 451 kts 108°
2026-04-17 05:45 53.32057 44.82331 33193 ft 451 kts 108°
2026-04-17 05:46 53.30275 44.92376 33194 ft 451 kts 108°
2026-04-17 05:46 53.28482 45.02426 33194 ft 451 kts 108°
2026-04-17 05:47 53.26600 45.12408 33193 ft 451 kts 110°
2026-04-17 05:47 53.24461 45.22171 33191 ft 450 kts 112°
2026-04-17 05:48 53.22222 45.32013 33196 ft 451 kts 111°
2026-04-17 05:48 53.20062 45.41756 33200 ft 451 kts 111°
2026-04-17 05:49 53.17917 45.51576 33206 ft 451 kts 111°
2026-04-17 05:49 53.15769 45.61399 33204 ft 451 kts 111°
2026-04-17 05:50 53.13592 45.71208 33207 ft 451 kts 111°
2026-04-17 05:50 53.11397 45.80997 33211 ft 452 kts 111°
2026-04-17 05:51 53.09214 45.90800 33215 ft 452 kts 111°
2026-04-17 05:51 53.07046 46.00615 33214 ft 452 kts 111°
2026-04-17 05:52 53.04869 46.10420 33214 ft 452 kts 111°
2026-04-17 05:52 53.02676 46.20219 33214 ft 453 kts 111°
2026-04-17 05:53 53.00463 46.29994 33220 ft 452 kts 111°
2026-04-17 05:53 52.98242 46.39770 33227 ft 452 kts 111°
2026-04-17 05:54 52.96021 46.49535 33228 ft 453 kts 111°
2026-04-17 05:54 52.93798 46.59301 33230 ft 453 kts 111°
2026-04-17 05:55 52.91566 46.69065 33236 ft 453 kts 111°
2026-04-17 05:55 52.89318 46.78812 33235 ft 453 kts 111°
2026-04-17 05:56 52.87058 46.88542 33242 ft 453 kts 111°
2026-04-17 05:56 52.84789 46.98268 33238 ft 453 kts 111°
2026-04-17 05:57 52.82517 47.07978 33245 ft 453 kts 111°
2026-04-17 05:57 52.80303 47.17720 33247 ft 453 kts 110°
2026-04-17 05:58 52.78235 47.27549 33251 ft 453 kts 109°
2026-04-17 05:59 52.75158 47.42277 33251 ft 452 kts 109°
2026-04-17 05:59 52.73046 47.52057 33251 ft 453 kts 110°
2026-04-17 06:00 52.70906 47.61829 33247 ft 453 kts 110°
2026-04-17 06:00 52.68782 47.71611 33248 ft 453 kts 109°
2026-04-17 06:01 52.66675 47.81336 33263 ft 454 kts 110°
2026-04-17 06:01 52.64540 47.91130 33265 ft 454 kts 110°
2026-04-17 06:02 52.62387 48.00910 33272 ft 455 kts 110°
2026-04-17 06:02 52.60228 48.10690 33273 ft 455 kts 110°
2026-04-17 06:03 52.58067 48.20457 33274 ft 454 kts 110°
2026-04-17 06:03 52.55888 48.30207 33270 ft 454 kts 110°
2026-04-17 06:04 52.54073 48.38297 33273 ft 454 kts 110°
2026-04-17 06:04 52.51878 48.48020 33281 ft 454 kts 110°
2026-04-17 06:05 52.49678 48.57737 33275 ft 454 kts 110°
2026-04-17 06:05 52.47469 48.67436 33284 ft 454 kts 110°
2026-04-17 06:06 52.45253 48.77111 33293 ft 453 kts 110°
2026-04-17 06:06 52.43037 48.86776 33298 ft 453 kts 110°
2026-04-17 06:07 52.40815 48.96420 33300 ft 452 kts 111°
2026-04-17 06:07 52.38584 49.06050 33306 ft 452 kts 111°
2026-04-17 06:08 52.36351 49.15653 33308 ft 451 kts 111°
2026-04-17 06:08 52.34105 49.25224 33308 ft 451 kts 111°
2026-04-17 06:09 52.31847 49.34782 33305 ft 450 kts 111°
2026-04-17 06:09 52.29585 49.44317 33306 ft 449 kts 111°
2026-04-17 06:10 52.27329 49.53828 33311 ft 449 kts 111°
2026-04-17 06:10 52.25068 49.63328 33312 ft 449 kts 111°
2026-04-17 06:11 52.22800 49.72812 33316 ft 448 kts 111°
2026-04-17 06:11 52.20525 49.82284 33317 ft 448 kts 111°
2026-04-17 06:12 52.18239 49.91732 33319 ft 448 kts 112°
2026-04-17 06:12 52.15951 50.01161 33315 ft 447 kts 112°
2026-04-17 06:13 52.13676 50.10513 33315 ft 447 kts 112°
2026-04-17 06:13 52.11372 50.19925 33314 ft 447 kts 112°
2026-04-17 06:14 52.09061 50.29315 33318 ft 447 kts 112°
2026-04-17 06:14 52.06752 50.38690 33318 ft 447 kts 112°
2026-04-17 06:15 52.04432 50.48065 33322 ft 447 kts 112°
2026-04-17 06:15 52.02102 50.57420 33324 ft 447 kts 112°
2026-04-17 06:16 51.99764 50.66759 33326 ft 447 kts 112°
2026-04-17 06:16 51.97377 50.76069 33335 ft 446 kts 118°
2026-04-17 06:17 51.93794 50.83856 33338 ft 443 kts 139°
2026-04-17 06:17 51.88669 50.89235 33337 ft 440 kts 159°
2026-04-17 06:18 51.82820 50.92031 33340 ft 439 kts 166°
2026-04-17 06:18 51.76914 50.94565 33343 ft 439 kts 166°
2026-04-17 06:19 51.71004 50.97097 33346 ft 440 kts 166°
2026-04-17 06:19 51.65353 51.00804 33351 ft 441 kts 149°
2026-04-17 06:20 51.60212 51.06229 33351 ft 442 kts 147°
2026-04-17 06:20 51.55080 51.11682 33358 ft 442 kts 147°
2026-04-17 06:21 51.49940 51.17121 33361 ft 443 kts 147°
2026-04-17 06:21 51.44783 51.22527 33363 ft 443 kts 147°
2026-04-17 06:22 51.39645 51.27976 33373 ft 443 kts 147°
2026-04-17 06:22 51.34562 51.33446 33378 ft 443 kts 147°
2026-04-17 06:23 51.29449 51.38928 33376 ft 443 kts 147°
2026-04-17 06:23 51.24326 51.44387 33379 ft 442 kts 147°
2026-04-17 06:24 51.19195 51.49802 33378 ft 442 kts 147°
2026-04-17 06:24 51.14297 51.55718 33376 ft 443 kts 134°
2026-04-17 06:25 51.10331 51.63217 33375 ft 443 kts 129°
2026-04-17 06:25 51.06406 51.70778 33374 ft 443 kts 130°
2026-04-17 06:26 51.02465 51.78307 33372 ft 443 kts 130°
2026-04-17 06:26 50.98524 51.85836 33368 ft 443 kts 130°
2026-04-17 06:27 50.94584 51.93369 33371 ft 443 kts 130°
2026-04-17 06:27 50.90642 52.00887 33371 ft 443 kts 130°
2026-04-17 06:28 50.86696 52.08389 33371 ft 443 kts 130°
2026-04-17 06:28 50.82740 52.15876 33372 ft 443 kts 130°
2026-04-17 06:29 50.78790 52.23343 33372 ft 443 kts 130°
2026-04-17 06:29 50.74836 52.30791 33365 ft 442 kts 130°
2026-04-17 06:30 50.70872 52.38228 33369 ft 443 kts 130°
2026-04-17 06:30 50.66907 52.45657 33367 ft 443 kts 130°
2026-04-17 06:31 50.62954 52.53097 33367 ft 442 kts 130°
2026-04-17 06:31 50.59007 52.60530 33370 ft 443 kts 130°
2026-04-17 06:32 50.55051 52.67950 33371 ft 443 kts 130°
2026-04-17 06:32 50.51087 52.75363 33371 ft 443 kts 130°
2026-04-17 06:33 50.47125 52.82760 33377 ft 442 kts 130°
2026-04-17 06:33 50.43182 52.90076 33375 ft 442 kts 130°
2026-04-17 06:34 50.39197 52.97434 33382 ft 442 kts 130°
2026-04-17 06:34 50.35217 53.04776 33379 ft 442 kts 130°
2026-04-17 06:35 50.31249 53.12091 33382 ft 441 kts 130°
2026-04-17 06:35 50.27273 53.19404 33381 ft 441 kts 130°
2026-04-17 06:36 50.23292 53.26683 33383 ft 441 kts 130°
2026-04-17 06:36 50.19305 53.33948 33379 ft 440 kts 130°
2026-04-17 06:37 50.15324 53.41205 33377 ft 440 kts 130°
2026-04-17 06:37 50.11337 53.48451 33382 ft 440 kts 130°
2026-04-17 06:38 50.07353 53.55682 33389 ft 440 kts 130°
2026-04-17 06:38 50.03360 53.62896 33384 ft 440 kts 130°
2026-04-17 06:39 49.99351 53.70085 33388 ft 440 kts 130°
2026-04-17 06:39 49.95352 53.77271 33391 ft 440 kts 130°
2026-04-17 06:40 49.91354 53.84457 33389 ft 440 kts 130°
2026-04-17 06:40 49.87341 53.91629 33394 ft 440 kts 130°
2026-04-17 06:41 49.83324 53.98764 33394 ft 439 kts 130°
2026-04-17 06:41 49.79313 54.05887 33390 ft 439 kts 130°
2026-04-17 06:42 49.75302 54.13007 33391 ft 439 kts 130°
2026-04-17 06:42 49.71317 54.20060 33384 ft 439 kts 130°
2026-04-17 06:43 49.67257 54.27198 33379 ft 439 kts 131°
2026-04-17 06:43 49.63253 54.34224 33373 ft 439 kts 131°
2026-04-17 06:44 49.59215 54.41299 33371 ft 440 kts 131°
2026-04-17 06:44 49.55145 54.48417 33368 ft 440 kts 131°
2026-04-17 06:45 49.51116 54.55429 33368 ft 440 kts 131°
2026-04-17 06:45 49.47052 54.62474 33370 ft 441 kts 131°
2026-04-17 06:46 49.42992 54.69529 33364 ft 441 kts 131°
2026-04-17 06:46 49.38929 54.76580 33369 ft 440 kts 131°
2026-04-17 06:47 49.34853 54.83584 33366 ft 440 kts 131°
2026-04-17 06:47 49.30769 54.90596 33366 ft 441 kts 131°
2026-04-17 06:48 49.26689 54.97604 33366 ft 441 kts 131°
2026-04-17 06:48 49.22592 55.04604 33370 ft 442 kts 131°
2026-04-17 06:49 49.18490 55.11592 33374 ft 442 kts 131°
2026-04-17 06:49 49.14385 55.18572 33379 ft 442 kts 131°
2026-04-17 06:50 49.10280 55.25549 33382 ft 441 kts 131°
2026-04-17 06:50 49.06167 55.32506 33384 ft 441 kts 131°
2026-04-17 06:51 49.02052 55.39448 33387 ft 441 kts 131°
2026-04-17 06:51 48.98627 55.45209 33384 ft 441 kts 131°
2026-04-17 06:52 48.94503 55.52144 33384 ft 442 kts 131°
2026-04-17 06:52 48.90376 55.59069 33384 ft 442 kts 131°
2026-04-17 06:53 48.86242 55.65973 33386 ft 442 kts 131°
2026-04-17 06:53 48.82097 55.72864 33383 ft 442 kts 131°
2026-04-17 06:54 48.77949 55.79740 33384 ft 442 kts 131°
2026-04-17 06:54 48.73799 55.86618 33385 ft 442 kts 131°
2026-04-17 06:55 48.69639 55.93479 33389 ft 442 kts 131°
2026-04-17 06:55 48.65479 56.00340 33389 ft 442 kts 131°
2026-04-17 06:56 48.61343 56.07147 33385 ft 442 kts 131°
2026-04-17 06:56 48.57168 56.13974 33384 ft 442 kts 131°
2026-04-17 06:57 48.52987 56.20784 33376 ft 442 kts 131°
2026-04-17 06:57 48.48804 56.27597 33381 ft 442 kts 131°
2026-04-17 06:58 48.44623 56.34399 33380 ft 443 kts 131°
2026-04-17 06:58 48.40436 56.41199 33379 ft 442 kts 131°
2026-04-17 06:59 48.36241 56.47962 33376 ft 442 kts 131°
2026-04-17 06:59 48.32042 56.54719 33380 ft 442 kts 131°
2026-04-17 07:00 48.27851 56.61484 33381 ft 442 kts 131°
2026-04-17 07:00 48.23654 56.68240 33386 ft 442 kts 131°
2026-04-17 07:01 48.19449 56.74974 33381 ft 443 kts 131°
2026-04-17 07:01 48.15233 56.81698 33391 ft 442 kts 131°
2026-04-17 07:02 48.11016 56.88402 33387 ft 442 kts 131°
2026-04-17 07:02 48.06800 56.95102 33387 ft 443 kts 131°
2026-04-17 07:03 48.02581 57.01792 33394 ft 442 kts 131°
2026-04-17 07:03 47.98364 57.08479 33390 ft 442 kts 132°
2026-04-17 07:04 47.94143 57.15161 33380 ft 443 kts 132°
2026-04-17 07:04 47.89903 57.21827 33379 ft 443 kts 132°
2026-04-17 07:05 47.85652 57.28476 33386 ft 443 kts 132°
2026-04-17 07:05 47.81402 57.35122 33389 ft 443 kts 132°
2026-04-17 07:06 47.77155 57.41758 33390 ft 443 kts 132°
2026-04-17 07:06 47.72905 57.48379 33389 ft 443 kts 132°
2026-04-17 07:07 47.68650 57.54992 33392 ft 443 kts 132°
2026-04-17 07:07 47.64387 57.61588 33389 ft 443 kts 132°
2026-04-17 07:08 47.60126 57.68173 33384 ft 442 kts 132°
2026-04-17 07:08 47.55866 57.74749 33382 ft 442 kts 132°
2026-04-17 07:09 47.51634 57.81275 33379 ft 442 kts 132°
2026-04-17 07:09 47.47366 57.87822 33380 ft 442 kts 132°
2026-04-17 07:10 47.43092 57.94351 33373 ft 442 kts 133°
2026-04-17 07:10 47.38812 58.00870 33368 ft 442 kts 133°
2026-04-17 07:11 47.34528 58.07401 33366 ft 443 kts 133°
2026-04-17 07:11 47.30241 58.13921 33363 ft 443 kts 133°
2026-04-17 07:12 47.25942 58.20443 33361 ft 444 kts 133°
2026-04-17 07:12 47.21632 58.26951 33362 ft 444 kts 133°
2026-04-17 07:13 47.17307 58.33463 33358 ft 445 kts 133°
2026-04-17 07:13 47.12975 58.39971 33357 ft 446 kts 133°
2026-04-17 07:14 47.08634 58.46478 33361 ft 446 kts 133°
2026-04-17 07:14 47.04281 58.52987 33359 ft 448 kts 133°
2026-04-17 07:15 46.99907 58.59497 33354 ft 448 kts 134°
2026-04-17 07:15 46.95530 58.65994 33351 ft 449 kts 134°
2026-04-17 07:16 46.91148 58.72506 33349 ft 449 kts 134°
2026-04-17 07:16 46.86760 58.79023 33342 ft 450 kts 134°
2026-04-17 07:17 46.82360 58.85522 33345 ft 450 kts 134°
2026-04-17 07:17 46.75742 58.95276 33344 ft 451 kts 134°
2026-04-17 07:18 46.71322 59.01760 33344 ft 451 kts 134°
2026-04-17 07:18 46.66894 59.08244 33340 ft 452 kts 134°
2026-04-17 07:19 46.62459 59.14721 33336 ft 452 kts 134°
2026-04-17 07:19 46.58014 59.21198 33337 ft 452 kts 134°
2026-04-17 07:20 46.53563 59.27660 33336 ft 453 kts 134°
2026-04-17 07:20 46.49107 59.34126 33332 ft 453 kts 135°
2026-04-17 07:21 46.44640 59.40581 33333 ft 453 kts 135°
2026-04-17 07:21 46.40173 59.47029 33328 ft 454 kts 135°
2026-04-17 07:22 46.35699 59.53480 33328 ft 454 kts 135°
2026-04-17 07:22 46.31214 59.59921 33326 ft 455 kts 135°
2026-04-17 07:23 46.26716 59.66364 33328 ft 455 kts 135°
2026-04-17 07:23 46.22203 59.72789 33323 ft 456 kts 136°
2026-04-17 07:24 46.17572 59.79048 33325 ft 456 kts 138°
2026-04-17 07:24 46.12860 59.85176 33322 ft 456 kts 139°
2026-04-17 07:25 46.08154 59.91332 33317 ft 457 kts 138°
2026-04-17 07:25 46.03463 59.97515 33319 ft 457 kts 138°
2026-04-17 07:26 45.98765 60.03694 33317 ft 457 kts 138°
2026-04-17 07:26 45.94069 60.09866 33312 ft 457 kts 138°
2026-04-17 07:27 45.89374 60.16028 33310 ft 457 kts 138°
2026-04-17 07:27 45.84700 60.22128 33305 ft 457 kts 138°
2026-04-17 07:28 45.79987 60.28237 33306 ft 457 kts 139°
2026-04-17 07:28 45.75269 60.34345 33308 ft 457 kts 139°
2026-04-17 07:29 45.70559 60.40464 33311 ft 457 kts 139°
2026-04-17 07:29 45.65844 60.46568 33312 ft 457 kts 139°
2026-04-17 07:30 45.61119 60.52654 33310 ft 457 kts 139°
2026-04-17 07:30 45.56386 60.58733 33307 ft 458 kts 139°
2026-04-17 07:31 45.51650 60.64814 33309 ft 458 kts 139°
2026-04-17 07:31 45.46909 60.70889 33314 ft 458 kts 139°
2026-04-17 07:32 45.42166 60.76960 33319 ft 458 kts 139°
2026-04-17 07:32 45.37420 60.83007 33326 ft 458 kts 139°
2026-04-17 07:33 45.32665 60.89042 33322 ft 458 kts 140°
2026-04-17 07:33 45.27918 60.95075 33316 ft 458 kts 140°
2026-04-17 07:34 45.23159 61.01088 33316 ft 458 kts 140°
2026-04-17 07:34 45.18396 61.07081 33316 ft 458 kts 140°
2026-04-17 07:35 45.13631 61.13085 33312 ft 458 kts 140°
2026-04-17 07:35 45.08873 61.19067 33310 ft 458 kts 140°
2026-04-17 07:36 45.04103 61.25037 33309 ft 458 kts 140°
2026-04-17 07:36 44.99365 61.30960 33308 ft 458 kts 140°
2026-04-17 07:37 44.94591 61.36905 33305 ft 457 kts 140°
2026-04-17 07:37 44.89825 61.42841 33304 ft 457 kts 140°
2026-04-17 07:38 44.85045 61.48765 33303 ft 458 kts 141°
2026-04-17 07:38 44.80265 61.54688 33309 ft 457 kts 141°
2026-04-17 07:39 44.76269 61.59634 33303 ft 457 kts 141°
2026-04-17 07:39 44.71493 61.65533 33302 ft 457 kts 141°
2026-04-17 07:40 44.66720 61.71429 33300 ft 457 kts 141°
2026-04-17 07:40 44.61942 61.77295 33298 ft 456 kts 141°
2026-04-17 07:41 44.57191 61.83108 33294 ft 456 kts 141°
2026-04-17 07:41 44.52416 61.88952 33294 ft 456 kts 141°
2026-04-17 07:42 44.47605 61.94830 33296 ft 456 kts 141°
2026-04-17 07:42 44.42861 62.00613 33295 ft 455 kts 142°
2026-04-17 07:43 44.38074 62.06418 33293 ft 456 kts 142°
2026-04-17 07:43 44.33284 62.12223 33293 ft 456 kts 142°
2026-04-17 07:44 44.28493 62.18021 33294 ft 456 kts 142°
2026-04-17 07:44 44.23702 62.23807 33290 ft 456 kts 142°
2026-04-17 07:45 44.18903 62.29578 33287 ft 456 kts 142°
2026-04-17 07:45 44.14092 62.35347 33286 ft 456 kts 142°
2026-04-17 07:46 44.09286 62.41098 33287 ft 456 kts 142°
2026-04-17 07:46 44.04484 62.46837 33286 ft 456 kts 142°
2026-04-17 07:47 43.99670 62.52580 33283 ft 456 kts 142°
2026-04-17 07:47 43.94846 62.58311 33282 ft 456 kts 143°
2026-04-17 07:48 43.90018 62.64024 33284 ft 456 kts 143°
2026-04-17 07:48 43.85189 62.69727 33286 ft 456 kts 143°
2026-04-17 07:49 43.80360 62.75434 33282 ft 456 kts 143°
2026-04-17 07:49 43.75527 62.81129 33282 ft 456 kts 143°
2026-04-17 07:50 43.70685 62.86817 33285 ft 457 kts 143°
2026-04-17 07:50 43.65838 62.92501 33286 ft 457 kts 143°
2026-04-17 07:51 43.60988 62.98171 33283 ft 457 kts 144°
2026-04-17 07:51 43.56142 63.03848 33283 ft 457 kts 144°
2026-04-17 07:52 43.51279 63.09527 33284 ft 458 kts 144°
2026-04-17 07:52 43.46412 63.15191 33288 ft 458 kts 144°
2026-04-17 07:53 43.41545 63.20859 33293 ft 458 kts 144°
2026-04-17 07:53 43.36669 63.26516 33297 ft 458 kts 144°
2026-04-17 07:54 43.31826 63.32128 33299 ft 458 kts 144°
2026-04-17 07:54 43.26914 63.37802 33297 ft 459 kts 144°
2026-04-17 07:55 43.22059 63.43392 33300 ft 459 kts 144°
2026-04-17 07:55 43.17169 63.49003 33299 ft 458 kts 145°
2026-04-17 07:56 43.12273 63.54608 33296 ft 459 kts 145°
2026-04-17 07:56 43.07381 63.60216 33296 ft 459 kts 145°
2026-04-17 07:57 43.02479 63.65814 33297 ft 459 kts 145°
2026-04-17 07:57 42.97578 63.71402 33304 ft 459 kts 145°
2026-04-17 07:58 42.92674 63.76969 33305 ft 459 kts 146°
2026-04-17 07:58 42.87762 63.82521 33304 ft 458 kts 146°
2026-04-17 07:59 42.82853 63.88054 33304 ft 458 kts 146°
2026-04-17 07:59 42.77949 63.93593 33301 ft 458 kts 146°
2026-04-17 08:00 42.73049 63.99115 33295 ft 457 kts 146°
2026-04-17 08:00 42.68138 64.04616 33283 ft 458 kts 147°
2026-04-17 08:01 42.63222 64.10122 33281 ft 458 kts 147°
2026-04-17 08:01 42.58109 64.15135 33279 ft 447 kts 159°
2026-04-17 08:02 42.52462 64.18470 33281 ft 442 kts 165°
2026-04-17 08:02 42.46782 64.21666 33289 ft 442 kts 165°
2026-04-17 08:03 42.41105 64.24880 33288 ft 442 kts 164°
2026-04-17 08:03 42.35482 64.28104 33290 ft 442 kts 164°
2026-04-17 08:04 42.29832 64.31348 33289 ft 440 kts 164°
2026-04-17 08:04 42.24182 64.34547 33285 ft 440 kts 165°
2026-04-17 08:05 42.18528 64.37732 33288 ft 440 kts 165°
2026-04-17 08:05 42.12874 64.40934 33289 ft 441 kts 165°
2026-04-17 08:06 42.07215 64.44142 33292 ft 441 kts 164°
2026-04-17 08:06 42.01551 64.47336 33298 ft 441 kts 165°
2026-04-17 08:07 41.95888 64.50504 33299 ft 441 kts 165°
2026-04-17 08:07 41.90231 64.53675 33300 ft 440 kts 165°
2026-04-17 08:08 41.84591 64.56842 33295 ft 439 kts 165°
2026-04-17 08:08 41.78950 64.59990 33294 ft 439 kts 165°
2026-04-17 08:09 41.73667 64.64372 33287 ft 458 kts 146°
2026-04-17 08:09 41.68919 64.70070 33274 ft 459 kts 146°
2026-04-17 08:10 41.64158 64.75751 33268 ft 459 kts 146°
2026-04-17 08:10 41.59383 64.81415 33267 ft 459 kts 146°
2026-04-17 08:11 41.54593 64.87075 33264 ft 460 kts 146°
2026-04-17 08:11 41.49802 64.92750 33270 ft 461 kts 146°
2026-04-17 08:12 41.45005 64.98431 33272 ft 461 kts 146°
2026-04-17 08:12 41.40199 65.04099 33272 ft 461 kts 147°
2026-04-17 08:13 41.35388 65.09751 33276 ft 462 kts 147°
2026-04-17 08:14 41.28168 65.18225 33266 ft 461 kts 147°
2026-04-17 08:14 41.23350 65.23873 33273 ft 462 kts 147°
2026-04-17 08:15 41.18526 65.29515 33272 ft 462 kts 147°
2026-04-17 08:15 41.13694 65.35136 33273 ft 462 kts 147°
2026-04-17 08:16 41.08743 65.40506 33269 ft 457 kts 152°
2026-04-17 08:16 41.03609 65.45433 33271 ft 455 kts 154°
2026-04-17 08:17 40.98646 65.50752 33273 ft 462 kts 148°
2026-04-17 08:17 40.93825 65.56415 33272 ft 464 kts 147°
2026-04-17 08:18 40.89065 65.62091 33267 ft 464 kts 147°
2026-04-17 08:18 40.84264 65.67776 33264 ft 463 kts 147°
2026-04-17 08:19 40.79414 65.73461 33276 ft 463 kts 148°
2026-04-17 08:19 40.74626 65.79070 33274 ft 463 kts 148°
2026-04-17 08:20 40.69778 65.84733 33272 ft 463 kts 148°
2026-04-17 08:20 40.64950 65.90371 33273 ft 463 kts 148°
2026-04-17 08:21 40.60155 65.95958 33270 ft 464 kts 148°
2026-04-17 08:21 40.55327 66.01574 33272 ft 463 kts 148°
2026-04-17 08:22 40.50487 66.07182 33252 ft 464 kts 148°
2026-04-17 08:22 40.45643 66.12780 33259 ft 464 kts 148°
2026-04-17 08:23 40.40801 66.18377 33258 ft 464 kts 148°
2026-04-17 08:23 40.35960 66.23964 33259 ft 464 kts 148°
2026-04-17 08:24 40.31112 66.29540 33257 ft 463 kts 148°
2026-04-17 08:24 40.26264 66.35110 33258 ft 464 kts 148°
2026-04-17 08:25 40.22192 66.39745 33264 ft 462 kts 149°
2026-04-17 08:25 40.17330 66.45156 33253 ft 462 kts 149°
2026-04-17 08:26 40.12436 66.50602 33253 ft 462 kts 149°
2026-04-17 08:26 40.07547 66.56071 33246 ft 463 kts 149°
2026-04-17 08:27 40.02665 66.61538 33246 ft 462 kts 149°
2026-04-17 08:27 39.97774 66.66978 33244 ft 462 kts 149°
2026-04-17 08:28 39.92871 66.72410 33243 ft 463 kts 149°
2026-04-17 08:28 39.87973 66.77841 33240 ft 463 kts 149°
2026-04-17 08:29 39.83073 66.83268 33241 ft 462 kts 149°
2026-04-17 08:29 39.78173 66.88677 33243 ft 462 kts 150°
2026-04-17 08:30 39.73267 66.94086 33245 ft 463 kts 149°
2026-04-17 08:30 39.68329 66.99438 33242 ft 461 kts 152°
2026-04-17 08:31 39.63250 67.04467 33237 ft 458 kts 153°
2026-04-17 08:31 39.58127 67.09363 33241 ft 458 kts 153°
2026-04-17 08:32 39.53019 67.14306 33242 ft 459 kts 153°
2026-04-17 08:32 39.47930 67.19309 33239 ft 459 kts 153°
2026-04-17 08:33 39.43250 67.25116 33240 ft 480 kts 135°
2026-04-17 08:33 39.41444 67.28804 33237 ft 491 kts 124°
2026-04-17 08:33 39.40049 67.32870 33234 ft 497 kts 120°
2026-04-17 08:34 39.37378 67.41101 33234 ft 497 kts 120°
2026-04-17 08:34 39.34690 67.49265 33233 ft 496 kts 121°
2026-04-17 08:35 39.31804 67.57357 33243 ft 495 kts 123°
2026-04-17 08:35 39.28820 67.65357 33240 ft 495 kts 123°
2026-04-17 08:36 39.25828 67.73417 33247 ft 495 kts 123°
2026-04-17 08:36 39.22911 67.81397 33243 ft 495 kts 122°
2026-04-17 08:37 39.19983 67.89438 33239 ft 495 kts 122°
2026-04-17 08:37 39.17047 67.97452 33230 ft 494 kts 122°
2026-04-17 08:38 39.14091 68.05461 33229 ft 495 kts 122°
2026-04-17 08:38 39.11124 68.13457 33220 ft 495 kts 123°
2026-04-17 08:39 39.08157 68.21457 33211 ft 495 kts 122°
2026-04-17 08:39 39.05194 68.29447 33206 ft 494 kts 123°
2026-04-17 08:40 39.02220 68.37428 33206 ft 496 kts 123°
2026-04-17 08:40 38.99230 68.45418 32953 ft 497 kts 123°
2026-04-17 08:40 38.97731 68.49414 32709 ft 497 kts 122°
2026-04-17 08:41 38.96227 68.53416 32456 ft 497 kts 123°
2026-04-17 08:41 38.94725 68.57407 32195 ft 496 kts 122°
2026-04-17 08:41 38.93230 68.61387 31602 ft 494 kts 122°
2026-04-17 08:41 38.91739 68.65361 30971 ft 492 kts 122°
2026-04-17 08:42 38.90257 68.69309 30348 ft 489 kts 122°
2026-04-17 08:42 38.88783 68.73230 29736 ft 486 kts 122°
2026-04-17 08:42 38.87315 68.77122 29125 ft 483 kts 122°
2026-04-17 08:42 38.85852 68.80989 28524 ft 480 kts 122°
2026-04-17 08:43 38.84265 68.84689 28011 ft 466 kts 130°
2026-04-17 08:43 38.82345 68.87948 27486 ft 453 kts 137°
2026-04-17 08:43 38.80352 68.91044 26986 ft 448 kts 137°
2026-04-17 08:43 38.78388 68.94107 26490 ft 442 kts 137°
2026-04-17 08:44 38.76449 68.97142 26011 ft 436 kts 137°
2026-04-17 08:44 38.74541 69.00129 25556 ft 430 kts 137°
2026-04-17 08:44 38.72658 69.03075 25089 ft 424 kts 137°
2026-04-17 08:44 38.70807 69.05961 24637 ft 415 kts 137°
2026-04-17 08:45 38.68988 69.08793 24201 ft 407 kts 137°
2026-04-17 08:45 38.67208 69.11560 23799 ft 399 kts 137°
2026-04-17 08:45 38.65459 69.14277 23383 ft 394 kts 137°
2026-04-17 08:45 38.63724 69.16966 22949 ft 389 kts 137°
2026-04-17 08:46 38.62012 69.19615 22539 ft 383 kts 137°
2026-04-17 08:46 38.60327 69.22226 22135 ft 379 kts 137°
2026-04-17 08:46 38.58660 69.24804 21732 ft 374 kts 137°
2026-04-17 08:46 38.57012 69.27347 21322 ft 370 kts 137°
2026-04-17 08:47 38.55357 69.29846 20906 ft 363 kts 140°
2026-04-17 08:47 38.53521 69.31987 20503 ft 353 kts 150°
2026-04-17 08:47 38.51511 69.33697 20097 ft 345 kts 156°
2026-04-17 08:47 38.49475 69.35302 19701 ft 343 kts 156°
2026-04-17 08:48 38.47482 69.36877 19306 ft 341 kts 155°
2026-04-17 08:48 38.45479 69.38470 18912 ft 338 kts 155°
2026-04-17 08:48 38.43465 69.40073 18509 ft 336 kts 155°
2026-04-17 08:48 38.41517 69.41626 18123 ft 333 kts 155°
2026-04-17 08:49 38.39558 69.43183 17740 ft 331 kts 155°
2026-04-17 08:49 38.37610 69.44727 17352 ft 329 kts 154°
2026-04-17 08:49 38.35672 69.46262 16951 ft 327 kts 154°
2026-04-17 08:49 38.33747 69.47787 16591 ft 325 kts 154°
2026-04-17 08:50 38.31833 69.49303 16212 ft 323 kts 154°
2026-04-17 08:50 38.29918 69.50796 15845 ft 321 kts 157°
2026-04-17 08:50 38.27900 69.51903 15474 ft 313 kts 168°
2026-04-17 08:50 38.25795 69.52490 15090 ft 307 kts 178°
2026-04-17 08:51 38.23671 69.52729 14732 ft 306 kts 179°
2026-04-17 08:51 38.21554 69.52961 14360 ft 305 kts 178°
2026-04-17 08:51 38.19440 69.53196 13987 ft 304 kts 178°
2026-04-17 08:51 38.17334 69.53429 13612 ft 303 kts 178°
2026-04-17 08:52 38.15235 69.53664 13231 ft 303 kts 177°
2026-04-17 08:52 38.13140 69.53897 12853 ft 302 kts 176°
2026-04-17 08:52 38.11050 69.54127 12476 ft 301 kts 176°
2026-04-17 08:52 38.08966 69.54359 12087 ft 300 kts 176°
2026-04-17 08:53 38.06887 69.54589 11697 ft 300 kts 176°
2026-04-17 08:53 38.04820 69.54819 11311 ft 298 kts 176°
2026-04-17 08:53 38.02763 69.55042 10919 ft 296 kts 176°
2026-04-17 08:53 38.00708 69.55270 10544 ft 295 kts 175°
2026-04-17 08:54 37.98689 69.55497 10346 ft 289 kts 176°
2026-04-17 08:54 37.96682 69.55721 10283 ft 291 kts 176°
2026-04-17 08:54 37.94659 69.55950 10206 ft 291 kts 175°
2026-04-17 08:54 37.92633 69.56170 9729 ft 297 kts 175°
2026-04-17 08:55 37.90547 69.56400 8950 ft 305 kts 175°
2026-04-17 08:55 37.88415 69.56639 8398 ft 306 kts 175°
2026-04-17 08:55 37.86335 69.56871 8225 ft 293 kts 175°
2026-04-17 08:55 37.84428 69.57429 8097 ft 281 kts 153°
2026-04-17 08:56 37.83010 69.59015 7867 ft 271 kts 122°
2026-04-17 08:56 37.82388 69.61168 7519 ft 252 kts 105°
2026-04-17 08:56 37.81965 69.63252 7151 ft 239 kts 105°
2026-04-17 08:56 37.81555 69.65223 6887 ft 225 kts 106°
2026-04-17 08:57 37.81157 69.67094 6590 ft 216 kts 106°
2026-04-17 08:57 37.80778 69.68903 6304 ft 210 kts 103°
2026-04-17 08:57 37.80722 69.70716 5993 ft 206 kts 84°
2026-04-17 08:57 37.81150 69.72462 5540 ft 210 kts 62°
2026-04-17 08:58 37.82021 69.73881 5286 ft 201 kts 42°
2026-04-17 08:58 37.83165 69.74836 5057 ft 195 kts 23°
2026-04-17 08:58 37.84442 69.75361 4803 ft 192 kts 15°
2026-04-17 08:58 37.85694 69.75811 4578 ft 182 kts 15°
2026-04-17 08:59 37.86896 69.76244 4327 ft 175 kts 15°
2026-04-17 08:59 37.88031 69.76654 4097 ft 165 kts 15°
2026-04-17 08:59 37.89118 69.77045 3880 ft 161 kts 15°
2026-04-17 08:59 37.90192 69.77433 3663 ft 160 kts 15°
2026-04-17 09:00 37.91257 69.77817 3411 ft 159 kts 14°
2026-04-17 09:00 37.92315 69.78192 3209 ft 158 kts 15°
2026-04-17 09:00 37.93364 69.78572 3016 ft 158 kts 15°
2026-04-17 09:00 37.94429 69.78961 2797 ft 157 kts 14°
2026-04-17 09:01 37.95478 69.79338 2585 ft 156 kts 14°
2026-04-17 09:01 37.96521 69.79717 2394 ft 155 kts 15°
2026-04-17 09:01 37.97550 69.80098 2264 ft 154 kts 15°
2026-04-17 09:01 37.98528 69.80458 2236 ft 136 kts 15°
2026-04-17 09:02 37.99160 69.80679 2229 ft 51 kts 16°
2026-04-17 09:02 37.99424 69.80779 2227 ft 37 kts 16°
2026-04-17 09:02 37.99659 69.80861 2232 ft 34 kts 16°
2026-04-17 09:02 37.99882 69.80943 2225 ft 33 kts 16°
2026-04-17 09:03 38.00067 69.81006 2223 ft 11 kts 18°
2026-04-17 09:03 38.00086 69.80990 2227 ft 1 kts 233°
2026-04-17 09:03 38.00031 69.80982 2223 ft 16 kts 184°
2026-04-17 09:03 37.99881 69.80941 2227 ft 28 kts 195°
2026-04-17 09:04 37.99654 69.80862 2232 ft 39 kts 195°
2026-04-17 09:04 37.99374 69.80756 2225 ft 43 kts 196°
2026-04-17 09:04 37.99086 69.80659 2227 ft 42 kts 197°
2026-04-17 09:04 37.98930 69.80661 2227 ft 17 kts 155°
2026-04-17 09:05 37.98804 69.80732 2232 ft 20 kts 176°
2026-04-17 09:05 37.98740 69.80739 2231 ft 7 kts 124°
2026-04-17 09:05 37.98727 69.80781 2230 ft 0 kts 110°
2026-04-17 09:05 37.98729 69.80775 2230 ft 0 kts 107°